Regional Weather Roundup
Issued by NWS Nashville, TN

Home | Current Version | Previous Version | Text Only | Print | Product List | Glossary On
Versions: 1 2 3 4 5 6 7 8 9 10 11 12 13 14 15 16 17 18 19 20 21 22 23 24 25 26 27 28 29 30 31 32 33 34 35 36 37 38 39 40 41 42 43 44 45 46 47 48 49 50
000
ASUS44 KOHX 251415
RWROHX
MIDDLE TENNESSEE HOURLY WEATHER ROUNDUP
NATIONAL WEATHER SERVICE NASHVILLE TN
800 AM CST THU DEC 25 2014

NOTE: "FAIR" INDICATES FEW OR NO CLOUDS BELOW 12,000 FEET WITH
NO SIGNIFICANT WEATHER AND/OR OBSTRUCTIONS TO VISIBILITY.

* THESE REPORTS ARE NOT UNDER NWS QUALITY CONTROL AND MAY NOT
  REPORT WEATHER SUCH AS PRECIPITATION AND FOG.


TNZ005>011-023>034-057-059-062>066-078-080-251500
...NORTHERN MIDDLE TENNESSEE...

CITY           SKY/WX    TMP DP  RH WIND       PRES   REMARKS
CLARKSVILLE    CLOUDY    39  35  86 SW8       30.14R WCI  33
CROSSVILLE     CLOUDY    37  33  85 W7        30.13R WCI  32
GALLATIN       CLOUDY    40  33  76 W7        30.15R
DICKSON        CLOUDY    37  34  87 SW5       30.12R WCI  34
LEBANON        CLOUDY    39  34  82 SW3       30.13R
LIVINGSTON     CLOUDY    36  35  96 SW8       30.12R WCI  30
NASHVILLE      CLOUDY    40  34  79 SW5       30.16R
WEST NASHVILLE CLOUDY    37  37 100 S5        30.15R WCI  34
PORTLAND       CLOUDY    37  34  87 SW3       30.12R
SMYRNA         CLOUDY    41  34  76 CALM      30.18R
SPARTA         PTSUNNY   39  36  87 W3        30.14R
$$
TNZ056-058-060-061-075>077-079-093>097-251500
...SOUTHERN MIDDLE TENNESSEE...

CITY           SKY/WX    TMP DP  RH WIND       PRES   REMARKS
COLUMBIA       CLOUDY    39  39 100 SW5       30.15R
LEWISBURG      CLOUDY    40  35  82 CALM      30.17R
MCMINNVILLE    CLOUDY    39  39 100 CALM      30.15S
MURFREESBORO   CLOUDY    41  32  70 W5        30.16R
SHELBYVILLE    CLOUDY    39  36  87 CALM      30.18R
TULLAHOMA      CLOUDY    37  30  75 CALM      30.16R
WINCHESTER     CLOUDY    39  34  81 CALM      30.16S
$$


...KEY TO REMARKS...
VSB - VISIBILITY IN MILES
WCI - WIND CHILL INDEX
HX  - HEAT INDEX



USA.gov is the U.S. government's official web portal to all federal, state and local government web resources and services.